Probability
0 0 0 0 0 0 0 0 0 0 0 0 0 0 0 0 0 0 0 0 0 0 0 0 0 0 0 0 0 0 0 0 0 0 0 0 0 0 0 0 0 0 0
0 0 0 0 0 0 0 0 0 0 0 0 0 0 0 0 0 0 0 0 0 0 0 0 0 0 0 0 0 0 0 0 0 0 0 0 0 0 0 0 0 0 0
0 0 0 0 0 0 0 0 0 0 0 0 0 0 0 0 0 0 0 0 0 0 0 0 0 0 0 0 0 0 0 0 0 0 0 0 0 0 0 0 0 0 0
0 0 0 0 0 0 0 0 0 0 0 0 0 0 0 0 0 0 0 0 0 0 0 0 0 0 0 0 0 0 0 0 0 0 0 0 0 0 0 0 0 0 0
0 0 0 0 0 0 0 0 0 0 0 0 0 0 0 0 0 0 0 0 0 0 0 0 0 0 0 0 0 0 0 0 0 0 0 0 0 0 0 0 0 0 0
0 0 0 0 0 0 0 0 0 0 0 0 0 0 0 0 0 0 0 0 0 0 0 0 0 0 0 0 0 0 0 0 0 0 0 0 0 0 0 0 0 0 0
0 0 0 0 0 0 0 0 0 0 0 0 0 0 0 0 0 0 0 0 0 0 0 0 0 0 0 0 0 0 0 0 0 0 0 0 0 0 0 0 0 0 0
0 0 0 0 0 0 0 0 0 0 0 0 0 0 0 0 0 0 0 0 0 0 0 0 0 0 0 0 0 0 0 0 0 0 0 0 0 0 0 0 0 0 0
1 0 0 0 0 0 0 0 0 0 0 0 0 0 0 0 0 0 0 0 0 0 0 0 0 0 0 0 0 0 0 0 0 0 0 0 0 0 0 0 0 0 0
2 1 0 0 0 0 0 0 0 0 0 0 0 0 0 0 0 0 0 0 0 0 0 0 0 0 0 0 0 0 0 0 0 0 0 0 0 0 0 0 0 0 0
3 2 1 0 0 0 0 0 0 0 0 0 0 0 0 0 0 0 0 0 0 0 0 0 0 0 0 0 0 0 0 0 0 0 0 0 0 0 0 0 0 0 0
3 2 1 0 0 0 0 0 0 0 0 0 0 0 0 0 0 0 0 0 0 0 0 0 0 0 0 0 0 0 0 0 0 0 0 0 0 0 0 0 0 0 0
3 3 1 0 0 0 0 0 0 0 0 0 0 0 0 0 0 0 0 0 0 0 0 0 0 0 0 0 0 0 0 0 0 0 0 0 0 0 0 0 0 0 0
3 3 2 1 0 0 0 0 0 0 0 0 0 0 0 0 0 0 0 0 0 0 0 0 0 0 0 0 0 0 0 0 0 0 0 0 0 0 0 0 0 0 0
3 3 2 1 0 0 0 0 0 0 0 0 0 0 0 0 0 0 0 0 0 0 0 0 0 0 0 0 0 0 0 0 0 0 0 0 0 0 0 0 0 0 0
3 3 3 1 0 0 0 0 0 0 0 0 0 0 0 0 0 0 0 0 0 0 0 0 0 0 0 0 0 0 0 0 0 0 0 0 0 0 0 0 0 0 0
3 3 3 2 1 0 0 0 0 0 0 0 0 0 0 0 0 0 0 0 0 0 0 0 0 0 0 0 0 0 0 0 0 0 0 0 0 0 0 0 0 0 0
1 2 4 4 3 2 2 1 1 0 0 0 0 0 0 0 0 0 0 0 0 0 0 0 0 0 0 0 0 0 0 0 0 0 0 0 0 0 0 0 0 0 0
0 1 4 5 5 4 3 3 2 2 1 0 0 0 0 0 0 0 0 0 0 0 0 0 0 0 0 0 0 0 0 0 0 0 0 0 0 0 0 0 0 0 0
0 0 2 4 6 5 4 3 3 3 2 1 1 0 0 0 0 0 0 0 0 0 0 0 0 0 0 0 0 0 0 0 0 0 0 0 0 0 0 0 0 0 0
0 0 0 2 4 5 4 3 3 3 3 3 2 1 0 0 0 0 0 0 0 0 0 0 0 0 0 0 0 0 0 0 0 0 0 0 0 0 0 0 0 0 0
0 0 0 0 2 3 2 1 1 2 2 2 2 1 0 0 0 0 0 0 0 0 0 0 0 0 0 0 0 0 0 0 0 0 0 0 0 0 0 0 0 0 0
0 0 0 0 0 1 0 0 0 1 1 1 1 0 0 0 0 0 0 0 0 0 0 0 0 0 0 0 0 0 0 0 0 0 0 0 0 0 0 0 0 0 0
0 0 0 0 0 0 0 0 0 0 0 0 0 0 0 0 0 0 0 0 0 0 0 0 0 0 0 0 0 0 0 0 0 0 0 0 0 0 0 0 0 0 0
0 0 0 0 0 0 0 0 0 0 0 0 0 0 0 0 0 0 0 0 0 0 0 0 0 0 0 0 0 0 0 0 0 0 0 0 0 0 0 0 0 0 0
0 0 0 0 0 0 0 0 0 0 0 0 0 0 0 0 0 0 0 0 0 0 0 0 0 0 0 0 0 0 0 0 0 0 0 0 0 0 0 0 0 0 0
Wind_Speed
5 5 4 4 4 4 4 4 4 5 5 5 5 5 5 5 4 4 3 8 9 10 11 11 10 10 10 10 10 10 10 9 9 9 8 8 7 7 6 6 5 4 3
6 6 5 5 5 5 5 5 5 5 5 4 5 6 5 5 5 5 5 6 10 12 13 13 13 13 12 12 12 12 12 12 11 11 11 10 10 9 8 8 7 6 5
7 7 6 6 6 6 6 5 5 4 4 5 6 6 5 6 6 6 6 5 5 10 13 15 15 15 15 14 14 14 14 13 13 13 13 13 12 11 11 10 10 9 8
9 7 6 6 6 5 5 5 5 4 5 5 4 5 5 5 7 7 6 6 5 5 9 15 16 17 16 16 16 16 16 15 15 15 14 14 14 14 13 13 12 12 11
10 8 7 6 6 6 6 6 5 4 5 5 5 5 5 5 6 7 8 8 7 7 6 10 14 15 17 18 18 18 17 17 17 16 16 16 16 16 16 15 14 14 13
10 9 7 7 7 6 6 6 6 5 4 4 4 5 6 6 6 7 9 8 7 9 8 8 7 9 16 19 20 20 19 19 18 18 17 17 17 17 17 17 16 16 15
10 10 8 7 8 8 9 8 6 6 6 3 2 4 5 7 9 9 8 7 8 8 8 9 7 6 7 17 20 21 21 21 20 19 18 18 18 18 18 18 17 17 16
11 10 10 8 8 8 8 9 8 5 4 5 4 2 4 5 5 8 7 8 9 6 8 9 8 8 7 6 11 19 21 21 21 20 19 18 18 18 18 18 18 17 17
11 11 11 10 9 9 9 10 10 10 8 6 6 5 4 6 4 3 5 6 7 6 7 6 8 8 8 7 7 14 19 20 20 20 19 18 18 18 18 18 17 18 18
11 12 11 11 10 10 11 10 10 9 9 8 6 7 6 4 3 4 3 3 5 6 7 6 6 7 8 7 9 13 15 17 18 18 18 18 18 18 17 17 17 17 16
11 12 12 11 11 11 11 10 10 11 10 10 8 5 8 7 7 6 7 4 3 4 5 6 6 6 7 8 7 11 15 16 16 16 16 17 17 18 17 17 17 17 16
8 11 12 12 12 11 12 12 11 12 11 11 10 8 7 6 7 8 10 8 6 4 5 6 6 7 7 7 10 13 15 15 16 15 15 15 15 16 17 17 17 16 16
8 10 11 12 12 12 12 11 11 12 13 13 12 10 10 10 5 6 9 8 7 4 4 5 7 7 7 7 7 13 13 14 15 15 14 14 14 14 15 16 16 16 16
8 8 10 12 13 12 12 11 11 12 11 12 13 12 10 9 8 8 7 7 9 7 5 7 4 6 7 6 8 12 8 12 13 14 13 13 13 13 14 15 15 15 15
6 7 9 10 11 12 12 12 11 12 11 12 12 12 11 9 8 8 8 8 9 10 9 6 5 5 6 6 8 7 7 9 11 12 12 12 12 13 13 13 14 14 15
6 6 8 9 9 10 11 12 11 11 12 11 9 11 12 9 8 8 8 8 9 11 11 4 5 5 5 5 7 6 7 9 10 10 11 11 11 11 12 12 13 13 13
6 7 7 7 8 9 9 10 11 10 12 12 11 12 13 10 9 8 8 8 9 9 12 8 4 4 5 6 4 4 5 5 5 8 9 10 10 10 10 10 11 12 12
6 6 6 7 7 8 8 10 11 11 12 12 12 12 13 9 12 9 9 10 9 9 10 12 6 4 6 5 4 4 4 3 4 6 9 9 9 9 9 9 9 10 10
5 5 5 6 6 6 7 8 9 10 11 11 11 11 11 10 11 9 9 9 8 7 8 9 8 4 4 2 3 3 3 3 3 4 6 7 8 8 8 9 9 9 8
6 5 5 5 6 6 6 7 7 8 9 9 9 10 10 10 11 10 9 9 7 8 7 8 7 5 4 2 2 3 3 3 3 2 4 4 5 6 7 8 8 7 7
6 5 5 5 5 4 4 5 6 7 8 9 8 9 9 10 11 10 8 7 8 8 7 7 7 5 4 3 4 3 4 3 3 2 2 2 3 3 4 5 6 7 8
6 5 5 5 5 4 6 6 6 6 7 8 8 7 7 8 10 11 12 11 10 9 9 8 7 7 6 5 4 3 3 3 4 3 3 3 2 3 3 3 6 7 8
6 6 5 5 5 6 7 7 7 6 6 6 7 6 5 5 7 7 8 10 11 12 12 10 9 9 7 6 5 5 5 5 5 3 3 3 2 3 2 4 6 7 7
6 6 6 6 6 6 8 7 7 6 6 6 6 6 6 6 5 6 6 7 7 7 9 9 9 8 6 5 6 7 6 4 2 1 3 3 2 2 1 2 5 6 7
6 5 5 6 6 7 8 8 7 4 5 5 5 5 5 6 6 6 6 6 6 5 4 5 5 5 5 5 5 3 3 3 3 3 3 3 2 1 1 2 2 4 5
5 5 5 5 5 7 8 9 7 4 4 5 4 4 4 6 6 6 6 6 7 6 3 1 1 2 2 3 5 5 5 4 3 3 4 4 3 2 1 1 1 1 2
Wind_Direction
190 189 193 193 196 193 195 205 218 228 235 240 236 230 231 226 222 220 231 230 230 235 241 243 241 238 234 233 236 235 232 232 232 231 233 233 232 230 230 229 228 228 227
193 191 195 198 202 202 202 205 213 221 229 230 235 232 230 227 228 226 227 233 235 237 243 247 247 246 242 239 240 239 237 236 236 234 235 235 235 234 233 233 232 233 233
196 194 197 202 205 203 204 210 218 221 228 231 236 237 235 233 232 233 230 228 234 239 241 246 249 249 249 247 244 243 241 240 240 238 237 236 236 236 234 233 232 232 232
199 197 201 207 202 198 201 207 210 216 226 229 235 240 239 239 240 238 235 231 228 234 239 243 247 249 250 251 248 248 246 245 244 242 240 238 237 236 235 234 232 231 230
203 202 208 208 198 202 206 211 210 206 219 228 235 242 242 242 243 242 240 236 231 230 230 240 241 244 248 252 252 252 251 249 248 245 242 240 238 238 236 235 233 231 230
206 207 212 208 200 206 213 213 215 213 216 219 238 251 248 245 243 241 242 240 235 232 229 232 236 240 242 248 252 253 254 253 251 249 245 243 241 239 238 236 234 231 229
207 209 214 210 208 214 217 212 211 219 225 198 231 275 270 249 244 242 238 238 239 234 230 231 230 230 239 245 249 252 254 256 255 253 251 248 245 242 239 236 235 233 231
212 214 217 216 212 218 219 214 208 215 217 185 189 228 292 298 261 242 235 235 240 235 235 235 232 230 230 233 244 249 254 257 259 259 258 255 252 249 244 240 237 235 232
217 218 219 219 216 217 224 220 213 216 224 209 196 189 217 249 294 280 243 237 237 235 240 239 236 235 233 232 239 248 251 254 258 260 261 261 259 256 250 243 239 235 232
219 219 221 220 221 222 227 223 217 219 220 224 213 218 221 206 237 295 288 258 241 237 240 241 241 240 236 235 236 237 242 247 252 256 258 260 261 261 258 248 245 242 236
221 222 221 221 224 226 228 225 219 219 220 226 219 210 226 234 231 249 275 277 269 246 239 238 239 240 238 236 238 240 241 244 246 248 252 254 258 261 262 260 254 250 241
225 223 222 224 226 226 227 227 224 222 225 227 227 220 212 219 219 227 250 262 261 250 236 236 237 239 239 236 237 240 241 241 243 244 246 249 252 256 259 262 260 257 250
229 226 221 225 228 229 228 225 225 227 227 228 230 231 229 233 222 221 242 259 261 258 240 236 232 233 235 234 239 238 241 241 243 244 244 245 247 250 254 257 260 259 256
234 229 222 225 227 227 228 227 228 229 229 231 233 232 235 235 229 228 234 249 265 263 241 241 232 228 231 230 235 233 240 238 239 242 244 244 246 248 251 254 257 257 257
238 231 227 228 229 228 227 226 229 229 228 230 234 235 238 239 233 233 232 232 250 268 267 237 228 224 225 225 230 229 231 233 233 239 243 243 243 245 249 250 250 251 253
243 239 234 232 232 230 228 227 231 231 230 231 231 233 236 238 237 233 233 233 235 252 267 245 225 221 215 222 226 224 227 229 231 237 241 240 241 244 247 248 247 248 249
252 246 242 238 236 234 231 230 232 230 231 234 231 233 237 234 237 236 234 235 238 241 259 263 232 222 215 224 227 223 226 225 230 230 234 237 239 242 243 245 246 247 248
267 257 251 246 243 240 236 233 235 232 233 235 234 234 238 236 238 239 237 237 239 235 248 263 255 226 223 222 219 217 221 222 227 232 229 232 235 237 238 241 244 244 245
291 279 266 258 254 248 243 239 238 238 237 237 237 237 240 236 240 240 238 240 240 237 239 251 257 236 224 207 215 223 223 226 230 239 234 234 235 234 235 238 241 238 235
308 296 280 268 263 258 252 248 245 245 244 243 240 239 240 236 240 240 239 241 240 240 240 247 255 246 228 202 190 219 235 224 229 225 237 232 231 232 233 235 237 230 226
320 312 304 295 286 273 269 267 259 255 253 253 251 247 244 242 241 239 239 239 236 241 242 245 251 249 235 205 216 205 224 229 232 204 221 225 215 224 228 234 231 225 222
327 323 316 307 300 294 300 288 274 263 258 256 259 258 254 246 245 241 239 237 233 238 241 241 244 243 241 224 214 201 205 209 240 202 196 227 196 222 226 222 230 225 220
327 324 316 312 304 305 312 305 289 275 269 263 263 264 263 258 248 249 246 244 244 241 237 239 245 243 237 217 201 208 207 212 224 186 172 215 196 222 224 236 231 218 212
323 319 319 317 311 314 319 314 305 280 276 275 272 267 266 268 256 249 253 253 253 250 243 241 247 249 240 219 205 209 206 202 194 164 163 202 198 215 218 236 235 213 208
321 320 319 318 314 316 325 322 316 291 284 284 283 276 270 270 263 252 256 260 265 269 265 232 240 248 237 218 194 177 180 180 213 205 183 187 184 189 216 233 238 215 204
313 315 317 318 314 314 326 327 317 293 292 297 299 290 272 268 269 250 249 251 256 262 247 254 254 261 250 227 206 207 196 196 195 204 184 176 168 152 210 240 234 230 210